This is the latest recevied weather packets stored in our database for station/object KC9DK. If no packets are shown the sender has not sent any weather packets the latest 1 day(s).
| Time | Temp. | Humidity | Pressure | Rain* | Wind** | Luminosity | Snow |
|---|---|---|---|---|---|---|---|
| 1778042896 | 8.89° C | 97% | 1010.3 hPa | 1.78 mm | - | 0 W/m² | - |
| 1778042594 | 8.89° C | 97% | 1010.1 hPa | 4.83 mm | - | 0 W/m² | - |
| 1778041988 | 8.89° C | 97% | 1010.3 hPa | 1.78 mm | - | 0 W/m² | - |
| 1778041385 | 8.89° C | 97% | 1009.3 hPa | 1.27 mm | - | 0 W/m² | - |
| 1778040780 | 9.44° C | 97% | 1010 hPa | 1.78 mm | - | 0 W/m² | - |
| 1778040477 | 9.44° C | 97% | 1009.6 hPa | 0 mm | - | 0 W/m² | - |
| 1778040174 | 9.44° C | 97% | 1009.6 hPa | 0 mm | - | 0 W/m² | - |
| 1778039871 | 9.44° C | 97% | 1009.6 hPa | 0 mm | - | 0 W/m² | - |
| 1778039568 | 9.44° C | 97% | 1009.9 hPa | 1.78 mm | - | 0 W/m² | - |
| 1778039265 | 9.44° C | 97% | 1009.9 hPa | 3.05 mm | - | 0 W/m² | - |
| 1778038962 | 9.44° C | 97% | 1009.6 hPa | 1.27 mm | - | 0 W/m² | - |
| 1778038659 | 9.44° C | 97% | 1009.7 hPa | 0 mm | - | 0 W/m² | - |
| 1778038356 | 9.44° C | 97% | 1009.8 hPa | 0 mm | - | 0 W/m² | - |
| 1778037750 | 9.44° C | 97% | 1009.7 hPa | 0 mm | - | 0 W/m² | - |
| 1778037446 | 9.44° C | 97% | 1009.9 hPa | 0 mm | - | 0 W/m² | - |
| 1778037144 | 9.44° C | 97% | 1009 hPa | 1.78 mm | - | 0 W/m² | - |
| 1778036842 | 9.44° C | 97% | 1008.8 hPa | 1.78 mm | - | 0 W/m² | - |
| 1778036236 | 9.44° C | 97% | 1008.8 hPa | 1.27 mm | - | 0 W/m² | - |
| 1778035932 | 9.44° C | 97% | 1009 hPa | 1.27 mm | - | 0 W/m² | - |
| 1778035022 | 10° C | 97% | 1009.3 hPa | 0 mm | - | 0 W/m² | - |
| 1778034416 | 10° C | 97% | 1009.7 hPa | 4.32 mm | - | 0 W/m² | - |
| 1778034114 | 10° C | 97% | 1009 hPa | 7.87 mm | - | 0 W/m² | - |
| 1778033812 | 10° C | 97% | 1009 hPa | 4.83 mm | - | 0 W/m² | - |
| 1778033509 | 10.56° C | 97% | 1008.7 hPa | 0 mm | - | 0 W/m² | - |
| 1778032600 | 10.56° C | 97% | 1008.7 hPa | 0 mm | - | 0 W/m² | - |
* Rain latest hour (hover to see other rain measurements)
** Current wind speed in m/s (hover to see current wind gust speed)